Regional Weather Roundup
Issued by NWS New Orleans/Baton Rouge, LA

Home | Current Version | Previous Version | Text Only | Print | Product List | Glossary Off
Versions: 1 2 3 4 5 6 7 8 9 10 11 12 13 14 15 16 17 18 19 20 21 22 23 24 25 26 27 28 29 30 31 32 33 34 35 36 37 38 39 40 41 42 43 44 45 46 47 48 49 50

316
ASUS44 KLIX 251201
RWRLIX
NEW ORLEANS REGIONAL WEATHER ROUNDUP
NATIONAL WEATHER SERVICE NEW ORLEANS LA
600 AM CST SUN JAN 25 2015

NOTE: "FAIR" INDICATES FEW OR NO CLOUDS BELOW 12,000 FEET WITH NO
      SIGNIFICANT WEATHER AND/OR OBSTRUCTIONS TO VISIBILITY.
      SKY/WX - SKY CONDITION AND SIGNIFICANT WEATHER.
      TMP - AIR TEMPERATURE.     DP    - DEWPOINT TEMPERATURE.
      RH  - RELATIVE HUMIDITY.   PRES  - PRESSURE.
      HI  - HEAT INDEX.          WCI   - WIND CHILL INDEX.

*  THESE STATIONS ARE NOT NWS OR FAA STATIONS AND ARE NOT UNDER
   NWS QUALITY CONTROL.

LAZ038-040-048-061>063-065>067-069-251300-
SOUTHEAST LOUISIANA

CITY           SKY/WX    TMP DP  RH WIND       PRES   REMARKS
N.O. AUDUBON     N/A     41  41 100 MISG        N/A
6HR MIN TEMP:  41; 6HR MAX TEMP:  43;

N.O. INTL ARPT CLEAR     41  39  93 S6        30.06R
6HR MIN TEMP:  41; 6HR MAX TEMP:  45;

N.O. LAKEFRONT CLEAR     47  42  83 SW9       30.06R
6HR MIN TEMP:  45; 6HR MAX TEMP:  50;

N.O. DOWNTOWN*   N/A     45  39  81 S7        30.06S
6HR MIN TEMP:  45; 6HR MAX TEMP:  46;

SLIDELL        CLEAR     37  34  89 CALM      30.04R
6HR MIN TEMP:  34; 6HR MAX TEMP:  47;

BATON ROUGE    CLEAR     39  37  92 SW6       30.02F WCI  35
6HR MIN TEMP:  39; 6HR MAX TEMP:  45;

BOOTHVILLE     CLEAR     47  45  93 W6        30.08S
6HR MIN TEMP:  45; 6HR MAX TEMP:  48;

BELLE CHASSE   CLEAR     39  36  87 S3        30.06S
6HR MIN TEMP:  36; 6HR MAX TEMP:  47;

BOGALUSA*        N/A     33  31  92 CALM      30.05R
6HR MIN TEMP:  33; 6HR MAX TEMP:  41;

GALLIANO*      NOT AVBL
NEW ROADS*     NOT AVBL
GONZALES*      NOT AVBL
HAMMOND*       NOT AVBL
HOUMA*         NOT AVBL
PORT FOURCHON* MOSUNNY   52  48  87 CALM      30.11R

$$

MSZ070-080>082-251300-
SOUTHERN MISSISSIPPI

CITY           SKY/WX    TMP DP  RH WIND       PRES   REMARKS
MCCOMB         CLEAR     32  30  92 CALM      29.99F FOG
6HR MIN TEMP:  30; 6HR MAX TEMP:  40;

GULFPORT       CLEAR     36  34  92 CALM      30.03F
6HR MIN TEMP:  36; 6HR MAX TEMP:  44;

BILOXI         CLEAR     42  40  93 NW3       30.03F
6HR MIN TEMP:  41; 6HR MAX TEMP:  49;

PASCAGOULA     FOG       35  34  96 CALM      30.04F VSB 1
6HR MIN TEMP:  34; 6HR MAX TEMP:  43;


$$

COASTAL OBSERVATIONS
LAKE AND NEARSHORE STATIONS

STATION/POSITION TIME  TEMP    WIND        PRES    WAVE
                       AIR SEA DIR/SP/G            HT/PER
                 (UTC) (F)     (DEG/KT/KT) (MB)    (FT/S)
PASCAGOULA       1100   46     280/  5/  7 1016.8
WAVELAND YACHT   1100   44     230/  5/  6 1016.1
GRAND ISLE       1100   53 54  290/  7/  9 1018.6
SOUTHWEST PASS   1100   53 45  300/ 10/ 15 1018.7
NEW CANAL        1123   46 51  210/  6/  7 1017.8
SHELL BEACH      1100   45 52  200/  5/  6 1017.7

OFFSHORE STATIONS

STATION/POSITION TIME  TEMP    WIND        PRES    WAVE
                       AIR SEA DIR/SP/G            HT/PER
                 (UTC) (F)     (DEG/KT/KT) (MB)    (FT/S)
64 S DAUPHIN ISL 1136   57 70  280/ 16/ 21 1018.5    5/ 5

$$




USA.gov is the U.S. government's official web portal to all federal, state and local government web resources and services.